Location: Cahoon Acres
(40.8736°N, 111.8994°W)
Time: 05:06:51
(UTC+00:00)

Explorer 11/Cluster Stage 4 - All Passes

Search period start: 06 June 2020 00:00
Search period end: 16 June 2020 00:00
Orbit: 467 x 1259 km, 28.8° (Epoch: 05 June)

Date Brightness Start Highest point End Pass type
(mag) Time Alt. Az. Time Alt. Az. Time Alt. Az.
06 Jun - 11:33:53 10° SW 11:37:37 21° SSE 11:41:57 10° ESE daylight
06 Jun - 13:20:54 10° SW 13:25:32 25° S 13:30:59 10° SE daylight
06 Jun - 15:09:20 10° WSW 15:13:43 19° SSW 15:18:35 10° SSE daylight
07 Jun - 11:23:12 10° SW 11:26:45 20° S 11:30:53 10° ESE visible
07 Jun - 13:10:19 10° SW 13:14:38 23° S 13:19:42 10° SE daylight
07 Jun - 14:59:00 10° SW 15:02:45 16° SSW 15:06:53 10° SSE daylight
08 Jun - 11:12:32 10° SW 11:15:55 20° S 11:19:47 10° SE visible
08 Jun - 12:59:48 10° SW 13:03:46 21° S 13:08:22 10° SE daylight
08 Jun - 14:48:53 10° SW 14:51:49 14° SSW 14:54:59 10° S daylight
09 Jun - 11:01:55 10° SW 11:05:05 19° S 11:08:43 10° SE visible
09 Jun - 12:49:20 10° SW 12:52:54 19° S 12:57:00 10° SE daylight
09 Jun - 14:39:18 10° SW 14:40:53 11° SSW 14:42:34 10° S daylight
10 Jun - 09:06:01 10° S 09:06:48 10° SSE 09:07:35 10° SSE visible
10 Jun - 10:51:19 10° SW 10:54:17 18° S 10:57:37 10° SE visible
10 Jun - 12:38:57 10° SW 12:42:04 17° S 12:45:34 10° SSE daylight
11 Jun - 08:54:56 10° S 08:55:59 11° SSE 08:57:03 10° SSE visible
11 Jun - 10:40:46 10° SW 10:43:29 17° S 10:46:32 10° SE visible
11 Jun - 12:28:42 10° SW 12:31:14 14° S 12:34:01 10° SSE daylight
12 Jun - 08:43:58 10° S 08:45:12 11° SSE 08:46:27 10° SSE visible
12 Jun - 10:30:14 10° SW 10:32:42 16° S 10:35:25 10° SE visible
12 Jun - 12:18:43 10° SSW 12:20:25 12° SSW 12:22:14 10° S daylight
13 Jun - 08:33:03 10° SSW 08:34:25 12° S 08:35:48 10° SSE night (unlit)
13 Jun - 10:19:46 10° SW 10:21:56 14° S 10:24:17 10° SSE visible
14 Jun - 08:22:11 10° SSW 08:23:39 12° S 08:25:09 10° SSE night (unlit)
14 Jun - 10:09:22 10° SSW 10:11:11 13° S 10:13:06 10° SSE visible
15 Jun - 08:11:20 10° SSW 08:12:53 12° S 08:14:28 10° SSE night (unlit)
15 Jun - 09:59:05 10° SSW 10:00:25 12° S 10:01:48 10° SSE visible
